Regional Weather Roundup
Issued by NWS

Home | Current Version | Previous Version | Graphics & Text | Print | Product List | Glossary On
Versions: 1 2 3 4 5 6 7 8 9 10 11 12 13 14 15 16 17 18 19 20 21 22 23 24 25 26 27 28 29 30 31 32 33 34 35 36 37 38 39 40 41 42 43 44 45 46 47 48 49 50
000
ASUS45 KSLC 140310
RWRUT

UTAH REGIONAL WEATHER ROUNDUP
NATIONAL WEATHER SERVICE SALT LAKE CITY UT
800 PM MST WED DEC 13 2017

UTZ001>011-023>025-140400-

NORTHERN UTAH

CITY           SKY/WX    TMP DP  RH WIND       PRES   REMARKS
BRIGHAM CITY   CLOUDY    26  24  91 N5        30.28R WCI  21
HILL AFB       NOT AVBL
LOGAN          MOCLDY    27  22  81 SW3       30.28R
OGDEN          LGT SNOW  27  25  92 N8        30.24S FOG     WCI  19
SALT LAKE CITY CLOUDY    29  26  89 NW10      30.25R FOG     WCI  20
TOOELE VALLEY  CLOUDY    28  27  93 W3        30.28R FOG
WENDOVER       PTCLDY    16  12  84 SW3       30.28R
HEBER CITY     FLURRIES  32  25  74 E3        30.15R
WEST JORDAN    CLOUDY    26  26 100 NW6       30.25R WCI  20

$$

UTZ011>015-024>027-140400-

CENTRAL/NORTHEAST UTAH

CITY           SKY/WX    TMP DP  RH WIND       PRES   REMARKS
PROVO AIRPORT  CLOUDY    32  26  78 NW7       30.21R WCI  26
MOAB/CANYONLAN CLOUDY    38   7  27 W6        30.06R WCI  33
DELTA          MOCLDY    30  16  55 N7        30.17F WCI  23
PRICE          MOCLDY    43  26  51 NW16G24   30.06F
RICHFIELD      MOCLDY    41   7  24 W1        30.15S
ROOSEVELT      CLOUDY    32  12  43 CALM      30.10S
VERNAL         CLOUDY    32  13  45 CALM      30.09R

$$

UTZ013>016-019>022-027-140400-

SOUTHERN UTAH

CITY           SKY/WX    TMP DP  RH WIND       PRES   REMARKS
BRYCE CANYON     N/A    N/A N/A N/A MISG      30.12R
CEDAR CITY     PTCLDY    35   9  33 SW3       30.11R
MILFORD        CLOUDY    33  15  47 N8        30.15R WCI  26
ST GEORGE      MOCLDY    45   6  20 S3        30.01F
HANKSVILLE     CLOUDY    37   5  25 CALM      30.08R
KANAB          CLEAR     36   7  30 CALM      30.08R
BLANDING         N/A     34   3  26 NE7       30.10S WCI  28

$$

REGIONAL REPORTS     COLORADO/ARIZONA

CITY           SKY/WX    TMP DP  RH WIND       PRES   REMARKS
CRAIG, CO      CLOUDY    34  22  61 W7        30.10R WCI  28
GRAND JUNCTION CLOUDY    37  14  38 N5        30.03S WCI  33
RIFLE, CO      CLOUDY    33  15  47 CALM      30.03F
MONTROSE, CO   CLOUDY    38  13  35 S3        30.05R
CORTEZ, CO     CLOUDY    30   5  34 CALM      30.04S
COLORADO CITY    N/A     30   0  27 SE5       30.06S WCI  25
PAGE, AZ       CLOUDY    42  15  33 S3        30.01S
GRAND CANYON   PTCLDY    26   4  38 NE3       30.08F
KINGMAN, AZ    PTCLDY    40   8  26 SE3       30.00S
FLAGSTAFF, AZ  CLEAR     26   3  37 CALM      30.09F

$$

REGIONAL REPORTS    NEVADA/IDAHO/WYOMING

CITY           SKY/WX    TMP DP  RH WIND       PRES   REMARKS
LAS VEGAS, NV  PTCLDY    57  13  17 W6        29.97R
ELY, NY        CLOUDY    36   8  31 NE13      30.19R WCI  27
ELKO, NV       CLEAR     27  20  75 E5        30.27R WCI  22
POCATELLO, ID  CLOUDY    24  21  88 S8        30.34R WCI  15
BURLEY, ID     CLOUDY    23  20  88 NW7       30.35R WCI  15
FORT BRIDGER,  LGT SNOW  32  27  80 W13G20    30.17S WCI  22
EVANSTON, WY   LGT SNOW  29  26  89 NW9       30.16R FOG     WCI  20
ROCK SPRINGS,  CLOUDY    27  23  85 E9        30.14S WCI  18

$$



USA.gov is the U.S. government's official web portal to all federal, state and local government web resources and services.